| time (UTC) | temp C | wind direction | speed KPH | gust KPH | rain 1hr cm | rain 24hr cm | rain mn cm | humidity % | barometer mb |
| 20260507211547 | 16 | 240 | 3.2 | 16.1 | 0.00 | 0.00 | 0.00 | 45 | 1011.4 |
| 20260507210038 | 15 | 239 | 1.6 | 11.3 | 0.00 | 0.00 | 0.00 | 51 | 1011.2 |
| 20260507204535 | 16 | 208 | 1.6 | 16.1 | 0.00 | 0.00 | 0.00 | 48 | 1011.3 |
| 20260507203036 | 15 | 195 | 0.0 | 16.1 | 0.00 | 0.00 | 0.00 | 47 | 1011.4 |
| 20260507201534 | 15 | 234 | 3.2 | 12.9 | 0.00 | 0.00 | 0.00 | 51 | 1011.4 |
| 20260507200032 | 16 | 284 | 1.6 | 12.9 | 0.00 | 0.00 | 0.00 | 53 | 1011.5 |
| 20260507194531 | 16 | 218 | 6.4 | 14.5 | 0.00 | 0.00 | 0.00 | 47 | 1011.7 |
| 20260507193030 | 16 | 204 | 1.6 | 9.7 | 0.00 | 0.00 | 0.00 | 56 | 1011.8 |
| 20260507191530 | 16 | 216 | 3.2 | 6.4 | 0.00 | 0.00 | 0.00 | 51 | 1011.9 |
| 20260507190027 | 16 | 191 | 3.2 | 16.1 | 0.00 | 0.00 | 0.00 | 51 | 1012.1 |
| 20260507184524 | 16 | 205 | 3.2 | 12.9 | 0.00 | 0.00 | 0.00 | 57 | 1012.1 |
| 20260507183022 | 16 | 224 | 4.8 | 14.5 | 0.00 | 0.00 | 0.00 | 58 | 1012.3 |
| 20260507181518 | 15 | 278 | 3.2 | 11.3 | 0.00 | 0.00 | 0.00 | 58 | 1012.3 |
| 20260507180017 | 15 | 220 | 1.6 | 8.0 | 0.00 | 0.00 | 0.00 | 57 | 1012.4 |
| 20260507174538 | 15 | 270 | 1.6 | 6.4 | 0.00 | 0.00 | 0.00 | 54 | 1012.5 |
| 20260507173021 | 14 | 234 | 1.6 | 14.5 | 0.00 | 0.00 | 0.00 | 57 | 1012.6 |
| 20260507171518 | 14 | 230 | 4.8 | 12.9 | 0.00 | 0.00 | 0.00 | 55 | 1012.7 |
| 20260507170012 | 15 | 186 | 1.6 | 14.5 | 0.00 | 0.00 | 0.00 | 57 | 1012.9 |
| 20260507164512 | 14 | 193 | 1.6 | 11.3 | 0.00 | 0.00 | 0.00 | 57 | 1013.1 |
| 20260507163011 | 14 | 201 | 6.4 | 16.1 | 0.00 | 0.00 | 0.00 | 59 | 1013.2 |
| 20260507161509 | 14 | 233 | 1.6 | 11.3 | 0.00 | 0.00 | 0.00 | 56 | 1013.3 |
| 20260507160008 | 14 | 195 | 1.6 | 8.0 | 0.00 | 0.00 | 0.00 | 59 | 1013.5 |
| 20260507154503 | 13 | 274 | 1.6 | 8.0 | 0.00 | 0.00 | 0.00 | 58 | 1013.8 |
| 20260507153001 | 13 | 214 | 4.8 | 12.9 | 0.00 | 0.00 | 0.00 | 58 | 1013.8 |
| 20260507151601 | 13 | 197 | 6.4 | 12.9 | 0.00 | 0.00 | 0.00 | 58 | 1014.0 |
| 20260507150058 | 13 | 243 | 1.6 | 14.5 | 0.00 | 0.00 | 0.00 | 59 | 1014.2 |
| 20260507144555 | 13 | 266 | 1.6 | 6.4 | 0.00 | 0.00 | 0.00 | 63 | 1014.5 |
| 20260507143100 | 13 | 205 | 1.6 | 6.4 | 0.00 | 0.00 | 0.00 | 65 | 1014.7 |
| 20260507141602 | 12 | 253 | 1.6 | 8.0 | 0.00 | 0.00 | 0.00 | 66 | 1014.9 |
| 20260507140052 | 11 | 199 | 3.2 | 14.5 | 0.00 | 0.00 | 0.00 | 70 | 1015.0 |
| 20260507134542 | 10 | 204 | 4.8 | 11.3 | 0.00 | 0.08 | 0.00 | 70 | 1015.2 |
| 20260507133040 | 10 | 179 | 1.6 | 11.3 | 0.00 | 0.08 | 0.00 | 74 | 1015.2 |
| 20260507131605 | 8 | 182 | 8.0 | 12.9 | 0.00 | 0.08 | 0.00 | 73 | 1015.2 |
| 20260507130034 | 8 | 209 | 3.2 | 9.7 | 0.00 | 0.08 | 0.00 | 78 | 1015.2 |
| 20260507124532 | 7 | 207 | 3.2 | 9.7 | 0.00 | 0.15 | 0.00 | 81 | 1015.3 |
| 20260507123038 | 6 | 178 | 4.8 | 9.7 | 0.00 | 0.15 | 0.00 | 83 | 1015.4 |
| 20260507121528 | 5 | 191 | 3.2 | 6.4 | 0.00 | 0.15 | 0.00 | 87 | 1015.3 |
| 20260507120032 | 4 | 200 | 1.6 | 4.8 | 0.00 | 0.15 | 0.00 | 89 | 1015.4 |
| 20260507114528 | 3 | 268 | 0.0 | 3.2 | 0.00 | 0.25 | 0.00 | 89 | 1015.4 |
| 20260507113057 | 2 | 293 | 0.0 | 0.0 | 0.00 | 0.25 | 0.00 | 89 | 1015.3 |
| 20260507111531 | 1 | 293 | 0.0 | 0.0 | 0.00 | 0.25 | 0.00 | 88 | 1015.2 |
| 20260507110026 | 0 | 293 | 0.0 | 0.0 | 0.00 | 0.25 | 0.00 | 87 | 1015.1 |
| 20260507104525 | 0 | 294 | 0.0 | 0.0 | 0.00 | 0.48 | 0.00 | 87 | 1015.1 |
| 20260507103025 | 0 | 293 | 0.0 | 0.0 | 0.00 | 0.48 | 0.00 | 87 | 1014.9 |
| 20260507101526 | 0 | 293 | 0.0 | 0.0 | 0.00 | 0.48 | 0.00 | 86 | 1014.7 |
| 20260507100033 | 0 | 293 | 0.0 | 0.0 | 0.00 | 0.48 | 0.00 | 86 | 1014.5 |
| 20260507094521 | 1 | 293 | 0.0 | 0.0 | 0.00 | 0.76 | 0.00 | 86 | 1014.6 |
| 20260507093019 | 1 | 293 | 0.0 | 0.0 | 0.00 | 0.76 | 0.00 | 86 | 1014.6 |
| 20260507091520 | 1 | 293 | 0.0 | 0.0 | 0.00 | 0.76 | 0.00 | 86 | 1014.6 |
| 20260507090015 | 1 | 293 | 0.0 | 0.0 | 0.00 | 0.76 | 0.00 | 85 | 1014.6 |
| 20260507084534 | 2 | 293 | 0.0 | 0.0 | 0.00 | 0.89 | 0.00 | 85 | 1014.6 |
| 20260507083020 | 2 | 294 | 0.0 | 0.0 | 0.00 | 0.89 | 0.00 | 84 | 1014.6 |
| 20260507081510 | 2 | 294 | 0.0 | 0.0 | 0.00 | 0.89 | 0.00 | 84 | 1014.5 |
| 20260507080008 | 2 | 294 | 0.0 | 0.0 | 0.00 | 0.89 | 0.00 | 84 | 1014.5 |
| 20260507074505 | 3 | 295 | 0.0 | 0.0 | 0.00 | 0.91 | 0.00 | 83 | 1014.5 |
| 20260507073002 | 3 | 293 | 0.0 | 0.0 | 0.00 | 0.91 | 0.00 | 83 | 1014.7 |
| 20260507071600 | 3 | 293 | 0.0 | 0.0 | 0.00 | 0.91 | 0.00 | 82 | 1014.6 |
| 20260507070108 | 4 | 293 | 0.0 | 3.2 | 0.00 | 0.91 | 0.00 | 82 | 1014.6 |
| 20260507064559 | 5 | 293 | 0.0 | 0.0 | 0.00 | 1.04 | 0.00 | 81 | 1014.6 |
| 20260507063055 | 5 | 294 | 0.0 | 0.0 | 0.00 | 1.04 | 0.00 | 80 | 1014.6 |
| 20260507061549 | 6 | 292 | 0.0 | 0.0 | 0.00 | 1.04 | 0.00 | 80 | 1014.7 |
| 20260507060047 | 6 | 292 | 0.0 | 0.0 | 0.00 | 1.04 | 0.00 | 79 | 1014.8 |
| 20260507054545 | 6 | 292 | 0.0 | 0.0 | 0.00 | 1.14 | 0.00 | 78 | 1014.9 |
| 20260507053042 | 6 | 293 | 0.0 | 0.0 | 0.00 | 1.14 | 0.00 | 75 | 1015.2 |
| 20260507051540 | 6 | 293 | 0.0 | 3.2 | 0.00 | 1.14 | 0.00 | 74 | 1015.4 |
| 20260507050100 | 6 | 335 | 0.0 | 6.4 | 0.00 | 1.14 | 0.00 | 73 | 1015.3 |
| 20260507044549 | 7 | 320 | 0.0 | 6.4 | 0.00 | 1.14 | 0.00 | 72 | 1015.3 |
| 20260507043036 | 7 | 299 | 0.0 | 4.8 | 0.00 | 1.14 | 0.00 | 71 | 1015.3 |
| 20260507041535 | 7 | 301 | 1.6 | 6.4 | 0.00 | 1.14 | 0.00 | 72 | 1015.2 |
| 20260507040032 | 7 | 330 | 0.0 | 6.4 | 0.00 | 1.14 | 0.00 | 72 | 1015.3 |
| 20260507034536 | 7 | 313 | 1.6 | 6.4 | 0.00 | 1.14 | 1.14 | 70 | 1015.1 |
| 20260507033036 | 7 | 335 | 4.8 | 8.0 | 0.00 | 1.14 | 1.14 | 70 | 1015.0 |
| 20260507031531 | 7 | 289 | 0.0 | 3.2 | 0.00 | 1.14 | 1.14 | 72 | 1015.0 |
| 20260507030026 | 7 | 294 | 1.6 | 4.8 | 0.00 | 1.14 | 1.14 | 70 | 1014.8 |
| 20260507024522 | 7 | 282 | 0.0 | 4.8 | 0.00 | 1.14 | 1.14 | 70 | 1014.6 |
| 20260507023020 | 7 | 340 | 1.6 | 4.8 | 0.00 | 1.14 | 1.14 | 70 | 1014.5 |
| 20260507021533 | 8 | 4 | 1.6 | 6.4 | 0.00 | 1.14 | 1.14 | 69 | 1014.5 |
| 20260507020023 | 8 | 8 | 0.0 | 4.8 | 0.00 | 1.14 | 1.14 | 69 | 1014.2 |
| 20260507014521 | 8 | 41 | 1.6 | 6.4 | 0.00 | 1.14 | 1.14 | 67 | 1014.2 |
| 20260507013016 | 8 | 31 | 3.2 | 8.0 | 0.00 | 1.14 | 1.14 | 65 | 1014.0 |
| 20260507011520 | 8 | 61 | 4.8 | 11.3 | 0.00 | 1.14 | 1.14 | 67 | 1014.2 |
| 20260507010027 | 9 | 54 | 3.2 | 8.0 | 0.00 | 1.14 | 1.14 | 67 | 1014.4 |
| 20260507004513 | 9 | 326 | 4.8 | 9.7 | 0.00 | 1.14 | 1.14 | 66 | 1014.3 |
| 20260507003010 | 9 | 335 | 1.6 | 12.9 | 0.00 | 1.14 | 1.14 | 67 | 1014.1 |
| 20260507001510 | 10 | 21 | 4.8 | 12.9 | 0.00 | 1.14 | 1.14 | 66 | 1014.1 |
| 20260507000007 | 10 | 286 | 1.6 | 8.0 | 0.00 | 1.14 | 1.14 | 67 | 1014.0 |
| 20260506234505 | 10 | 296 | 1.6 | 12.9 | 0.00 | 1.14 | 1.14 | 66 | 1013.6 |
| 20260506233003 | 10 | 272 | 3.2 | 14.5 | 0.00 | 1.14 | 1.14 | 65 | 1013.5 |
| 20260506231501 | 10 | 340 | 8.0 | 14.5 | 0.00 | 1.14 | 1.14 | 65 | 1013.1 |
| 20260506230100 | 11 | 350 | 6.4 | 22.5 | 0.00 | 1.14 | 1.14 | 64 | 1012.9 |
| 20260506230001 | 11 | 351 | 8.0 | 22.5 | 0.00 | 1.14 | 1.14 | 63 | 1012.9 |
| 20260506224557 | 11 | 309 | 6.4 | 12.9 | 0.00 | 1.14 | 1.14 | 66 | 1012.6 |
| 20260506223100 | 11 | 268 | 4.8 | 14.5 | 0.00 | 1.14 | 1.14 | 67 | 1012.7 |
| 20260506221556 | 11 | 280 | 0.0 | 14.5 | 0.00 | 1.14 | 1.14 | 73 | 1012.4 |
| 20260506220052 | 11 | 340 | 3.2 | 17.7 | 0.00 | 1.14 | 1.14 | 71 | 1012.3 |
| 20260506214551 | 11 | 274 | 6.4 | 14.5 | 0.00 | 1.14 | 1.14 | 72 | 1012.2 |
| 20260506213050 | 11 | 240 | 1.6 | 14.5 | 0.00 | 1.14 | 1.14 | 74 | 1012.1 |